contact:dominique.lefevre@mio.osupytheas.fr, maurice.libes@osupytheas.fr, didier.mallarino@osupytheas.fr
Project:EMSO http://www.emso-fr.org/EMSO-France
Depth: 2436.0 m
Title:EMSO Ligure Ouest : Data MII capteur CSTAR
DateTime,Latitude,Longitude,Instrument_Serial,Reference_Counts,Signal_Counts,Corrected_Signal_raw_counts,Calculated_Beam_c_inverse_meters,Internal_thermistor_counts
DateTime,Latitude,Longitude,Instrument_Serial,Reference_Counts,Signal_Counts,Corrected_Signal_raw_counts,Calculated_Beam_c_inverse_meters,Internal_thermistor_counts
2019-06-02T00:00:03,42.805,6.029,CST-1368DR,9244,12933,15557,0.015,551
2019-06-02T00:03:05,42.805,6.029,CST-1368DR,9244,12934,15557,0.015,551
2019-06-02T00:06:06,42.805,6.029,CST-1368DR,9244,12935,15558,0.015,551
2019-06-02T00:09:07,42.805,6.029,CST-1368DR,9244,12935,15558,0.015,551
2019-06-02T00:12:09,42.805,6.029,CST-1368DR,9244,12933,15556,0.015,551
2019-06-02T00:15:10,42.805,6.029,CST-1368DR,9244,12932,15555,0.016,551
2019-06-02T00:18:12,42.805,6.029,CST-1368DR,9244,12933,15556,0.015,551
2019-06-02T00:21:13,42.805,6.029,CST-1368DR,9244,12935,15559,0.015,551
2019-06-02T00:24:14,42.805,6.029,CST-1368DR,9244,12935,15559,0.015,551
2019-06-02T00:27:16,42.805,6.029,CST-1368DR,9244,12934,15558,0.015,551
2019-06-02T00:30:17,42.805,6.029,CST-1368DR,9244,12936,15560,0.014,551
2019-06-02T00:33:19,42.805,6.029,CST-1368DR,9244,12932,15555,0.016,551
2019-06-02T00:36:20,42.805,6.029,CST-1368DR,9244,12935,15559,0.015,551
2019-06-02T00:39:21,42.805,6.029,CST-1368DR,9244,12933,15556,0.015,551
2019-06-02T00:42:23,42.805,6.029,CST-1368DR,9244,12934,15558,0.015,551
2019-06-02T00:45:24,42.805,6.029,CST-1368DR,9244,12933,15556,0.015,551
2019-06-02T00:48:26,42.805,6.029,CST-1368DR,9244,12934,15557,0.015,551
2019-06-02T00:51:27,42.805,6.029,CST-1368DR,9244,12935,15558,0.015,551
2019-06-02T00:54:29,42.805,6.029,CST-1368DR,9244,12933,15556,0.015,551
2019-06-02T00:57:30,42.805,6.029,CST-1368DR,9244,12933,15556,0.015,551
2019-06-02T01:00:31,42.805,6.029,CST-1368DR,9244,12935,15559,0.015,550
2019-06-02T01:03:33,42.805,6.029,CST-1368DR,9244,12935,15558,0.015,551
2019-06-02T01:06:34,42.805,6.029,CST-1368DR,9244,12916,15536,0.021,551
2019-06-02T01:09:36,42.805,6.029,CST-1368DR,9244,12934,15557,0.015,551
2019-06-02T01:12:37,42.805,6.029,CST-1368DR,9244,12932,15554,0.016,551
2019-06-02T01:15:38,42.805,6.029,CST-1368DR,9244,12933,15556,0.015,550
2019-06-02T01:18:40,42.805,6.029,CST-1368DR,9244,12934,15558,0.015,551
2019-06-02T01:21:41,42.805,6.029,CST-1368DR,9244,12932,15555,0.016,551
2019-06-02T01:24:43,42.805,6.029,CST-1368DR,9243,12933,15558,0.015,551
2019-06-02T01:27:44,42.805,6.029,CST-1368DR,9243,12934,15559,0.015,550
2019-06-02T01:30:45,42.805,6.029,CST-1368DR,9243,12933,15558,0.015,551
2019-06-02T01:33:47,42.805,6.029,CST-1368DR,9243,12935,15560,0.014,551
2019-06-02T01:36:48,42.805,6.029,CST-1368DR,9243,12932,15556,0.015,551
2019-06-02T01:39:50,42.805,6.029,CST-1368DR,9243,12932,15557,0.015,551
2019-06-02T01:42:51,42.805,6.029,CST-1368DR,9243,12934,15558,0.015,551
2019-06-02T01:45:52,42.805,6.029,CST-1368DR,9243,12932,15557,0.015,551
2019-06-02T01:48:54,42.805,6.029,CST-1368DR,9243,12933,15558,0.015,551
2019-06-02T01:51:55,42.805,6.029,CST-1368DR,9243,12933,15558,0.015,551
2019-06-02T01:54:57,42.805,6.029,CST-1368DR,9243,12933,15557,0.015,551
2019-06-02T01:57:58,42.805,6.029,CST-1368DR,9243,12932,15557,0.015,551
2019-06-02T02:01:00,42.805,6.029,CST-1368DR,9243,12929,15552,0.016,551
2019-06-02T02:04:01,42.805,6.029,CST-1368DR,9243,12933,15558,0.015,551
2019-06-02T02:07:02,42.805,6.029,CST-1368DR,9243,12930,15554,0.016,551
2019-06-02T02:10:04,42.805,6.029,CST-1368DR,9243,12933,15557,0.015,551
2019-06-02T02:13:05,42.805,6.029,CST-1368DR,9243,12932,15556,0.015,551
2019-06-02T02:16:07,42.805,6.029,CST-1368DR,9243,12931,15555,0.016,551
2019-06-02T02:19:08,42.805,6.029,CST-1368DR,9243,12932,15556,0.015,551
2019-06-02T02:22:09,42.805,6.029,CST-1368DR,9243,12932,15556,0.015,551
2019-06-02T02:25:11,42.805,6.029,CST-1368DR,9243,12928,15552,0.016,551
2019-06-02T02:28:12,42.805,6.029,CST-1368DR,9243,12932,15556,0.015,551
2019-06-02T02:31:14,42.805,6.029,CST-1368DR,9243,12933,15558,0.015,551
2019-06-02T02:34:15,42.805,6.029,CST-1368DR,9243,12932,15556,0.015,551
2019-06-02T02:37:16,42.805,6.029,CST-1368DR,9243,12934,15558,0.015,551
2019-06-02T02:40:18,42.805,6.029,CST-1368DR,9243,12934,15559,0.015,551
2019-06-02T02:43:19,42.805,6.029,CST-1368DR,9243,12932,15557,0.015,551
2019-06-02T02:46:21,42.805,6.029,CST-1368DR,9243,12932,15557,0.015,551
2019-06-02T02:49:22,42.805,6.029,CST-1368DR,9243,12931,15555,0.016,551
2019-06-02T02:52:23,42.805,6.029,CST-1368DR,9243,12933,15557,0.015,551
2019-06-02T02:55:25,42.805,6.029,CST-1368DR,9243,12932,15557,0.015,551
2019-06-02T02:58:26,42.805,6.029,CST-1368DR,9243,12931,15555,0.016,551
2019-06-02T03:01:28,42.805,6.029,CST-1368DR,9243,12933,15557,0.015,551
2019-06-02T03:04:29,42.805,6.029,CST-1368DR,9243,12931,15556,0.015,551
2019-06-02T03:07:31,42.805,6.029,CST-1368DR,9243,12933,15557,0.015,551
2019-06-02T03:10:32,42.805,6.029,CST-1368DR,9243,12933,15557,0.015,551
2019-06-02T03:13:33,42.805,6.029,CST-1368DR,9243,12933,15557,0.015,551
2019-06-02T03:16:35,42.805,6.029,CST-1368DR,9243,12932,15557,0.015,551
2019-06-02T03:19:36,42.805,6.029,CST-1368DR,9242,12932,15557,0.015,551
2019-06-02T03:22:38,42.805,6.029,CST-1368DR,9242,12931,15556,0.015,551
2019-06-02T03:25:39,42.805,6.029,CST-1368DR,9242,12930,15556,0.015,551
2019-06-02T03:28:40,42.805,6.029,CST-1368DR,9242,12931,15557,0.015,551
2019-06-02T03:31:42,42.805,6.029,CST-1368DR,9242,12933,15559,0.015,551
2019-06-02T03:34:43,42.805,6.029,CST-1368DR,9242,12932,15558,0.015,551
2019-06-02T03:37:45,42.805,6.029,CST-1368DR,9242,12933,15559,0.015,551
2019-06-02T03:40:46,42.805,6.029,CST-1368DR,9242,12933,15559,0.015,551
2019-06-02T03:43:47,42.805,6.029,CST-1368DR,9242,12929,15554,0.016,551
2019-06-02T03:46:49,42.805,6.029,CST-1368DR,9242,12933,15559,0.015,551
2019-06-02T03:49:50,42.805,6.029,CST-1368DR,9242,12931,15557,0.015,550
2019-06-02T03:52:52,42.805,6.029,CST-1368DR,9242,12931,15557,0.015,551
2019-06-02T03:55:53,42.805,6.029,CST-1368DR,9242,12931,15557,0.015,551
2019-06-02T03:58:54,42.805,6.029,CST-1368DR,9242,12930,15555,0.016,551
2019-06-02T04:01:56,42.805,6.029,CST-1368DR,9242,12931,15556,0.015,551
2019-06-02T04:04:57,42.805,6.029,CST-1368DR,9242,12933,15559,0.015,551
2019-06-02T04:07:59,42.805,6.029,CST-1368DR,9242,12915,15537,0.020,551
2019-06-02T04:11:00,42.805,6.029,CST-1368DR,9242,12930,15555,0.016,551
2019-06-02T04:14:02,42.805,6.029,CST-1368DR,9242,12930,15556,0.015,551
2019-06-02T04:17:03,42.805,6.029,CST-1368DR,9242,12929,15555,0.016,551
2019-06-02T04:20:04,42.805,6.029,CST-1368DR,9242,12930,15555,0.016,551
2019-06-02T04:23:06,42.805,6.029,CST-1368DR,9242,12931,15556,0.015,551
2019-06-02T04:26:07,42.805,6.029,CST-1368DR,9242,12925,15550,0.017,551
2019-06-02T04:29:09,42.805,6.029,CST-1368DR,9242,12930,15556,0.015,550
2019-06-02T04:32:10,42.805,6.029,CST-1368DR,9242,12926,15551,0.017,550
2019-06-02T04:35:11,42.805,6.029,CST-1368DR,9242,12930,15555,0.016,551
2019-06-02T04:38:13,42.805,6.029,CST-1368DR,9242,12931,15557,0.015,551
2019-06-02T04:41:14,42.805,6.029,CST-1368DR,9242,12931,15556,0.015,550
2019-06-02T04:44:16,42.805,6.029,CST-1368DR,9241,12930,15557,0.015,551
2019-06-02T04:47:17,42.805,6.029,CST-1368DR,9241,12928,15554,0.016,550
2019-06-02T04:50:18,42.805,6.029,CST-1368DR,9242,12931,15557,0.015,551
2019-06-02T04:53:20,42.805,6.029,CST-1368DR,9241,12930,15557,0.015,550
2019-06-02T04:56:21,42.805,6.029,CST-1368DR,9241,12930,15557,0.015,551
2019-06-02T04:59:23,42.805,6.029,CST-1368DR,9241,12931,15558,0.015,551
2019-06-02T05:02:24,42.805,6.029,CST-1368DR,9241,12930,15558,0.015,551
2019-06-02T05:05:26,42.805,6.029,CST-1368DR,9241,12913,15536,0.021,551
2019-06-02T05:08:27,42.805,6.029,CST-1368DR,9241,12931,15558,0.015,551
2019-06-02T05:11:28,42.805,6.029,CST-1368DR,9241,12930,15558,0.015,551
2019-06-02T05:14:30,42.805,6.029,CST-1368DR,9241,12930,15558,0.015,551
2019-06-02T05:17:31,42.805,6.029,CST-1368DR,9241,12930,15557,0.015,551
2019-06-02T05:20:33,42.805,6.029,CST-1368DR,9241,12931,15558,0.015,551
2019-06-02T05:23:34,42.805,6.029,CST-1368DR,9241,12931,15558,0.015,551
2019-06-02T05:26:35,42.805,6.029,CST-1368DR,9241,12930,15557,0.015,551
2019-06-02T05:29:37,42.805,6.029,CST-1368DR,9241,12929,15556,0.015,551
2019-06-02T05:32:38,42.805,6.029,CST-1368DR,9241,12930,15557,0.015,551
2019-06-02T05:35:40,42.805,6.029,CST-1368DR,9241,12931,15558,0.015,551
2019-06-02T05:38:41,42.805,6.029,CST-1368DR,9241,12930,15557,0.015,551
2019-06-02T05:41:42,42.805,6.029,CST-1368DR,9241,12928,15555,0.016,551
2019-06-02T05:44:44,42.805,6.029,CST-1368DR,9241,12931,15558,0.015,551
2019-06-02T05:47:45,42.805,6.029,CST-1368DR,9241,12927,15554,0.016,551
2019-06-02T05:50:47,42.805,6.029,CST-1368DR,9241,12929,15556,0.015,551
2019-06-02T05:53:48,42.805,6.029,CST-1368DR,9241,12930,15557,0.015,551
2019-06-02T05:56:49,42.805,6.029,CST-1368DR,9241,12929,15556,0.015,551
2019-06-02T05:59:51,42.805,6.029,CST-1368DR,9241,12929,15556,0.015,551
2019-06-02T06:02:52,42.805,6.029,CST-1368DR,9241,12931,15558,0.015,551
2019-06-02T06:05:54,42.805,6.029,CST-1368DR,9241,12929,15556,0.015,551
2019-06-02T06:08:55,42.805,6.029,CST-1368DR,9240,12929,15557,0.015,551
2019-06-02T06:11:57,42.805,6.029,CST-1368DR,9241,12930,15557,0.015,551
2019-06-02T06:14:58,42.805,6.029,CST-1368DR,9240,12927,15555,0.016,551
2019-06-02T06:17:59,42.805,6.029,CST-1368DR,9240,12930,15559,0.015,551
2019-06-02T06:21:01,42.805,6.029,CST-1368DR,9240,12930,15558,0.015,551
2019-06-02T06:24:02,42.805,6.029,CST-1368DR,9240,12929,15557,0.015,551
2019-06-02T06:27:04,42.805,6.029,CST-1368DR,9240,12924,15551,0.017,551
2019-06-02T06:30:05,42.805,6.029,CST-1368DR,9240,12930,15559,0.015,551
2019-06-02T06:33:06,42.805,6.029,CST-1368DR,9240,12927,15555,0.016,551
2019-06-02T06:36:08,42.805,6.029,CST-1368DR,9240,12929,15558,0.015,550
2019-06-02T06:39:09,42.805,6.029,CST-1368DR,9240,12929,15558,0.015,550
2019-06-02T06:42:11,42.805,6.029,CST-1368DR,9240,12927,15555,0.016,551
2019-06-02T06:45:12,42.805,6.029,CST-1368DR,9240,12930,15558,0.015,551
2019-06-02T06:48:13,42.805,6.029,CST-1368DR,9240,12927,15555,0.016,551
2019-06-02T06:51:15,42.805,6.029,CST-1368DR,9240,12929,15557,0.015,551
2019-06-02T06:54:16,42.805,6.029,CST-1368DR,9240,12929,15557,0.015,551
2019-06-02T06:57:18,42.805,6.029,CST-1368DR,9240,12930,15559,0.015,551
2019-06-02T07:00:19,42.805,6.029,CST-1368DR,9240,12929,15557,0.015,551
2019-06-02T07:03:20,42.805,6.029,CST-1368DR,9240,12929,15557,0.015,551
2019-06-02T07:06:22,42.805,6.029,CST-1368DR,9240,12925,15553,0.016,551
2019-06-02T07:09:23,42.805,6.029,CST-1368DR,9240,12923,15550,0.017,550
2019-06-02T07:12:25,42.805,6.029,CST-1368DR,9240,12930,15558,0.015,551
2019-06-02T07:15:26,42.805,6.029,CST-1368DR,9240,12928,15556,0.015,551
2019-06-02T07:18:28,42.805,6.029,CST-1368DR,9240,12928,15556,0.015,551
2019-06-02T07:21:29,42.805,6.029,CST-1368DR,9240,12926,15554,0.016,551
2019-06-02T07:24:30,42.805,6.029,CST-1368DR,9240,12925,15552,0.016,551
2019-06-02T07:27:32,42.805,6.029,CST-1368DR,9240,12927,15555,0.016,551
2019-06-02T07:30:33,42.805,6.029,CST-1368DR,9240,12927,15555,0.016,551
2019-06-02T07:33:35,42.805,6.029,CST-1368DR,9240,12926,15554,0.016,551
2019-06-02T07:36:36,42.805,6.029,CST-1368DR,9239,12928,15558,0.015,551
2019-06-02T07:39:37,42.805,6.029,CST-1368DR,9239,12928,15558,0.015,551
2019-06-02T07:42:39,42.805,6.029,CST-1368DR,9239,12928,15558,0.015,551
2019-06-02T07:45:40,42.805,6.029,CST-1368DR,9239,12927,15557,0.015,551
2019-06-02T07:48:42,42.805,6.029,CST-1368DR,9239,12927,15557,0.015,551
2019-06-02T07:51:43,42.805,6.029,CST-1368DR,9239,12928,15558,0.015,550
2019-06-02T07:54:44,42.805,6.029,CST-1368DR,9239,12927,15556,0.015,551
2019-06-02T07:57:46,42.805,6.029,CST-1368DR,9239,12928,15558,0.015,551
2019-06-02T08:00:47,42.805,6.029,CST-1368DR,9239,12928,15557,0.015,550
2019-06-02T08:03:49,42.805,6.029,CST-1368DR,9239,12927,15557,0.015,551
2019-06-02T08:06:50,42.805,6.029,CST-1368DR,9239,12927,15557,0.015,551
2019-06-02T08:09:51,42.805,6.029,CST-1368DR,9239,12927,15557,0.015,551
2019-06-02T08:12:53,42.805,6.029,CST-1368DR,9239,12928,15558,0.015,551
2019-06-02T08:15:54,42.805,6.029,CST-1368DR,9239,12926,15556,0.015,551
2019-06-02T08:18:56,42.805,6.029,CST-1368DR,9239,12927,15556,0.015,551
2019-06-02T08:21:57,42.805,6.029,CST-1368DR,9239,12927,15557,0.015,551
2019-06-02T08:24:59,42.805,6.029,CST-1368DR,9239,12927,15557,0.015,551
2019-06-02T08:28:00,42.805,6.029,CST-1368DR,9239,12928,15558,0.015,551
2019-06-02T08:31:01,42.805,6.029,CST-1368DR,9239,12928,15558,0.015,551
2019-06-02T08:34:03,42.805,6.029,CST-1368DR,9239,12927,15557,0.015,551
2019-06-02T08:37:04,42.805,6.029,CST-1368DR,9239,12927,15557,0.015,551
2019-06-02T08:40:06,42.805,6.029,CST-1368DR,9239,12928,15558,0.015,551
2019-06-02T08:43:07,42.805,6.029,CST-1368DR,9239,12927,15557,0.015,551
2019-06-02T08:46:08,42.805,6.029,CST-1368DR,9239,12927,15557,0.015,551
2019-06-02T08:49:10,42.805,6.029,CST-1368DR,9239,12927,15557,0.015,550
2019-06-02T08:52:11,42.805,6.029,CST-1368DR,9239,12927,15557,0.015,551
2019-06-02T08:55:13,42.805,6.029,CST-1368DR,9239,12927,15556,0.015,550
2019-06-02T08:58:14,42.805,6.029,CST-1368DR,9239,12920,15549,0.017,551
2019-06-02T09:01:15,42.805,6.029,CST-1368DR,9239,12926,15555,0.016,551
2019-06-02T09:04:17,42.805,6.029,CST-1368DR,9239,12925,15555,0.016,551
2019-06-02T09:07:18,42.805,6.029,CST-1368DR,9239,12928,15557,0.015,550
2019-06-02T09:10:20,42.805,6.029,CST-1368DR,9239,12926,15556,0.015,551
2019-06-02T09:13:21,42.805,6.029,CST-1368DR,9239,12927,15557,0.015,551
2019-06-02T09:16:23,42.805,6.029,CST-1368DR,9239,12927,15556,0.015,551
2019-06-02T09:19:24,42.805,6.029,CST-1368DR,9239,12928,15558,0.015,551
2019-06-02T09:22:25,42.805,6.029,CST-1368DR,9239,12927,15557,0.015,551
2019-06-02T09:25:27,42.805,6.029,CST-1368DR,9239,12926,15555,0.016,551
2019-06-02T09:28:28,42.805,6.029,CST-1368DR,9238,12925,15555,0.016,551
2019-06-02T09:31:30,42.805,6.029,CST-1368DR,9238,12922,15552,0.016,551
2019-06-02T09:34:31,42.805,6.029,CST-1368DR,9238,12928,15559,0.015,551
2019-06-02T09:37:32,42.805,6.029,CST-1368DR,9238,12926,15557,0.015,551
2019-06-02T09:40:34,42.805,6.029,CST-1368DR,9238,12927,15558,0.015,551
2019-06-02T09:43:35,42.805,6.029,CST-1368DR,9238,12927,15559,0.015,550
2019-06-02T09:46:37,42.805,6.029,CST-1368DR,9238,12926,15557,0.015,551
2019-06-02T09:49:38,42.805,6.029,CST-1368DR,9238,12925,15556,0.015,551
2019-06-02T09:52:39,42.805,6.029,CST-1368DR,9238,12925,15556,0.015,551
2019-06-02T09:55:41,42.805,6.029,CST-1368DR,9238,12924,15555,0.016,551
2019-06-02T09:58:42,42.805,6.029,CST-1368DR,9238,12924,15555,0.016,551
2019-06-02T10:01:44,42.805,6.029,CST-1368DR,9238,12926,15557,0.015,551
2019-06-02T10:04:45,42.805,6.029,CST-1368DR,9238,12926,15557,0.015,551
2019-06-02T10:07:46,42.805,6.029,CST-1368DR,9238,12925,15556,0.015,550
2019-06-02T10:10:48,42.805,6.029,CST-1368DR,9238,12926,15557,0.015,551
2019-06-02T10:13:49,42.805,6.029,CST-1368DR,9238,12925,15556,0.015,551
2019-06-02T10:16:51,42.805,6.029,CST-1368DR,9238,12925,15556,0.015,551
2019-06-02T10:19:52,42.805,6.029,CST-1368DR,9238,12926,15557,0.015,551
2019-06-02T10:22:54,42.805,6.029,CST-1368DR,9238,12927,15558,0.015,551
2019-06-02T10:25:55,42.805,6.029,CST-1368DR,9238,12926,15557,0.015,551
2019-06-02T10:28:56,42.805,6.029,CST-1368DR,9238,12927,15558,0.015,551
2019-06-02T10:31:58,42.805,6.029,CST-1368DR,9238,12927,15558,0.015,551
2019-06-02T10:34:59,42.805,6.029,CST-1368DR,9238,12925,15555,0.016,550
2019-06-02T10:38:01,42.805,6.029,CST-1368DR,9238,12925,15556,0.015,551
2019-06-02T10:41:02,42.805,6.029,CST-1368DR,9238,12924,15554,0.016,551
2019-06-02T10:44:03,42.805,6.029,CST-1368DR,9238,12923,15553,0.016,551
2019-06-02T10:47:05,42.805,6.029,CST-1368DR,9237,12927,15559,0.015,551
2019-06-02T10:50:06,42.805,6.029,CST-1368DR,9238,12926,15557,0.015,551
2019-06-02T10:53:08,42.805,6.029,CST-1368DR,9237,12927,15559,0.015,551
2019-06-02T10:56:09,42.805,6.029,CST-1368DR,9237,12925,15557,0.015,551
2019-06-02T10:59:10,42.805,6.029,CST-1368DR,9237,12926,15559,0.015,551
2019-06-02T11:02:12,42.805,6.029,CST-1368DR,9237,12924,15556,0.015,551
2019-06-02T11:05:13,42.805,6.029,CST-1368DR,9237,12927,15559,0.015,551
2019-06-02T11:08:15,42.805,6.029,CST-1368DR,9237,12924,15556,0.015,551
2019-06-02T11:11:16,42.805,6.029,CST-1368DR,9237,12924,15556,0.015,551
2019-06-02T11:14:17,42.805,6.029,CST-1368DR,9237,12927,15559,0.015,551
2019-06-02T11:17:19,42.805,6.029,CST-1368DR,9237,12925,15557,0.015,551
2019-06-02T11:20:20,42.805,6.029,CST-1368DR,9237,12925,15557,0.015,550
2019-06-02T11:23:22,42.805,6.029,CST-1368DR,9237,12924,15556,0.015,551
2019-06-02T11:26:23,42.805,6.029,CST-1368DR,9237,12926,15559,0.015,551
2019-06-02T11:29:25,42.805,6.029,CST-1368DR,9237,12924,15556,0.015,551
2019-06-02T11:32:26,42.805,6.029,CST-1368DR,9237,12924,15556,0.015,551
2019-06-02T11:35:27,42.805,6.029,CST-1368DR,9237,12924,15556,0.015,551
2019-06-02T11:38:29,42.805,6.029,CST-1368DR,9237,12916,15546,0.018,551
2019-06-02T11:41:30,42.805,6.029,CST-1368DR,9237,12922,15553,0.016,551
2019-06-02T11:44:32,42.805,6.029,CST-1368DR,9237,12923,15555,0.016,551
2019-06-02T11:47:33,42.805,6.029,CST-1368DR,9237,12926,15558,0.015,551
2019-06-02T11:50:34,42.805,6.029,CST-1368DR,9237,12915,15545,0.018,551
2019-06-02T11:53:36,42.805,6.029,CST-1368DR,9237,12924,15556,0.015,551
2019-06-02T11:56:37,42.805,6.029,CST-1368DR,9237,12922,15554,0.016,551
2019-06-02T11:59:39,42.805,6.029,CST-1368DR,9237,12925,15557,0.015,551
2019-06-02T12:02:40,42.805,6.029,CST-1368DR,9237,12924,15556,0.015,551
2019-06-02T12:05:41,42.805,6.029,CST-1368DR,9237,12925,15557,0.015,551
2019-06-02T12:08:43,42.805,6.029,CST-1368DR,9237,12925,15557,0.015,551
2019-06-02T12:11:44,42.805,6.029,CST-1368DR,9237,12924,15556,0.015,551
2019-06-02T12:14:46,42.805,6.029,CST-1368DR,9237,12925,15557,0.015,551
2019-06-02T12:17:47,42.805,6.029,CST-1368DR,9237,12925,15557,0.015,551
2019-06-02T12:20:49,42.805,6.029,CST-1368DR,9237,12925,15557,0.015,551
2019-06-02T12:23:50,42.805,6.029,CST-1368DR,9236,12923,15556,0.015,551
2019-06-02T12:26:51,42.805,6.029,CST-1368DR,9237,12924,15556,0.015,551
2019-06-02T12:29:53,42.805,6.029,CST-1368DR,9236,12925,15559,0.015,551
2019-06-02T12:32:54,42.805,6.029,CST-1368DR,9236,12924,15557,0.015,551
2019-06-02T12:35:56,42.805,6.029,CST-1368DR,9236,12925,15559,0.015,551
2019-06-02T12:38:57,42.805,6.029,CST-1368DR,9236,12925,15558,0.015,551
2019-06-02T12:41:58,42.805,6.029,CST-1368DR,9236,12924,15557,0.015,551
2019-06-02T12:45:00,42.805,6.029,CST-1368DR,9236,12925,15558,0.015,551
2019-06-02T12:48:01,42.805,6.029,CST-1368DR,9236,12924,15557,0.015,551
2019-06-02T12:51:03,42.805,6.029,CST-1368DR,9236,12925,15559,0.015,550
2019-06-02T12:54:04,42.805,6.029,CST-1368DR,9236,12923,15556,0.015,551
2019-06-02T12:57:05,42.805,6.029,CST-1368DR,9236,12926,15560,0.014,551
2019-06-02T13:00:07,42.805,6.029,CST-1368DR,9236,12917,15549,0.017,551
2019-06-02T13:03:08,42.805,6.029,CST-1368DR,9236,12926,15560,0.014,551
2019-06-02T13:06:10,42.805,6.029,CST-1368DR,9236,12927,15561,0.014,551
2019-06-02T13:09:11,42.805,6.029,CST-1368DR,9236,12925,15559,0.015,551
2019-06-02T13:12:12,42.805,6.029,CST-1368DR,9236,12923,15557,0.015,551
2019-06-02T13:15:14,42.805,6.029,CST-1368DR,9236,12925,15559,0.015,551
2019-06-02T13:18:15,42.805,6.029,CST-1368DR,9236,12924,15558,0.015,551
2019-06-02T13:21:17,42.805,6.029,CST-1368DR,9236,12925,15559,0.015,551
2019-06-02T13:24:18,42.805,6.029,CST-1368DR,9236,12924,15558,0.015,551
2019-06-02T13:27:20,42.805,6.029,CST-1368DR,9236,12919,15552,0.016,551
2019-06-02T13:30:21,42.805,6.029,CST-1368DR,9236,12926,15560,0.014,551
2019-06-02T13:33:22,42.805,6.029,CST-1368DR,9236,12925,15559,0.015,551
2019-06-02T13:36:24,42.805,6.029,CST-1368DR,9236,12925,15559,0.015,551
2019-06-02T13:39:25,42.805,6.029,CST-1368DR,9236,12925,15559,0.015,551
2019-06-02T13:42:27,42.805,6.029,CST-1368DR,9236,12924,15557,0.015,550
2019-06-02T13:45:28,42.805,6.029,CST-1368DR,9236,12926,15560,0.014,551
2019-06-02T13:48:29,42.805,6.029,CST-1368DR,9236,12926,15560,0.014,551
2019-06-02T13:51:31,42.805,6.029,CST-1368DR,9236,12926,15560,0.014,551
2019-06-02T13:54:32,42.805,6.029,CST-1368DR,9236,12925,15559,0.015,551
2019-06-02T13:57:34,42.805,6.029,CST-1368DR,9236,12926,15560,0.014,551
2019-06-02T14:00:35,42.805,6.029,CST-1368DR,9236,12922,15555,0.016,551
2019-06-02T14:03:36,42.805,6.029,CST-1368DR,9236,12925,15559,0.015,551
2019-06-02T14:06:38,42.805,6.029,CST-1368DR,9235,12925,15560,0.014,551
2019-06-02T14:09:39,42.805,6.029,CST-1368DR,9235,12924,15560,0.014,551
2019-06-02T14:12:41,42.805,6.029,CST-1368DR,9235,12924,15559,0.015,551
2019-06-02T14:15:42,42.805,6.029,CST-1368DR,9235,12927,15562,0.014,551
2019-06-02T14:18:43,42.805,6.029,CST-1368DR,9235,12925,15560,0.014,550
2019-06-02T14:21:45,42.805,6.029,CST-1368DR,9235,12925,15560,0.014,551
2019-06-02T14:24:46,42.805,6.029,CST-1368DR,9235,12918,15552,0.016,551
2019-06-02T14:27:48,42.805,6.029,CST-1368DR,9235,12923,15558,0.015,551
2019-06-02T14:30:49,42.805,6.029,CST-1368DR,9235,12925,15560,0.014,551
2019-06-02T14:33:51,42.805,6.029,CST-1368DR,9235,12925,15560,0.014,551
2019-06-02T14:36:52,42.805,6.029,CST-1368DR,9235,12923,15558,0.015,551
2019-06-02T14:39:53,42.805,6.029,CST-1368DR,9235,12926,15561,0.014,551
2019-06-02T14:42:55,42.805,6.029,CST-1368DR,9235,12925,15561,0.014,551
2019-06-02T14:45:56,42.805,6.029,CST-1368DR,9235,12917,15551,0.017,551
2019-06-02T14:48:58,42.805,6.029,CST-1368DR,9235,12923,15557,0.015,551
2019-06-02T14:51:59,42.805,6.029,CST-1368DR,9235,12924,15559,0.015,551
2019-06-02T14:55:00,42.805,6.029,CST-1368DR,9235,12924,15560,0.014,551
2019-06-02T14:58:02,42.805,6.029,CST-1368DR,9235,12923,15558,0.015,550
2019-06-02T15:01:03,42.805,6.029,CST-1368DR,9235,12923,15558,0.015,551
2019-06-02T15:04:05,42.805,6.029,CST-1368DR,9235,12921,15556,0.015,550
2019-06-02T15:07:06,42.805,6.029,CST-1368DR,9235,12925,15560,0.014,551
2019-06-02T15:10:07,42.805,6.029,CST-1368DR,9235,12924,15559,0.015,551
2019-06-02T15:13:09,42.805,6.029,CST-1368DR,9235,12924,15560,0.014,551
2019-06-02T15:16:10,42.805,6.029,CST-1368DR,9235,12925,15560,0.014,551
2019-06-02T15:19:12,42.805,6.029,CST-1368DR,9235,12923,15558,0.015,550
2019-06-02T15:22:13,42.805,6.029,CST-1368DR,9235,12922,15556,0.015,551
2019-06-02T15:25:14,42.805,6.029,CST-1368DR,9235,12921,15556,0.015,551
2019-06-02T15:28:16,42.805,6.029,CST-1368DR,9235,12923,15558,0.015,550
2019-06-02T15:31:17,42.805,6.029,CST-1368DR,9234,12924,15561,0.014,551
2019-06-02T15:34:19,42.805,6.029,CST-1368DR,9235,12924,15559,0.015,551
2019-06-02T15:37:20,42.805,6.029,CST-1368DR,9235,12924,15560,0.014,551
2019-06-02T15:40:22,42.805,6.029,CST-1368DR,9234,12922,15558,0.015,551
2019-06-02T15:43:23,42.805,6.029,CST-1368DR,9234,12923,15559,0.015,551
2019-06-02T15:46:24,42.805,6.029,CST-1368DR,9234,12922,15558,0.015,551
2019-06-02T15:49:26,42.805,6.029,CST-1368DR,9234,12923,15559,0.015,551
2019-06-02T15:52:27,42.805,6.029,CST-1368DR,9234,12922,15558,0.015,551
2019-06-02T15:55:29,42.805,6.029,CST-1368DR,9234,12923,15559,0.015,551
2019-06-02T15:58:30,42.805,6.029,CST-1368DR,9234,12923,15559,0.015,551
2019-06-02T16:01:31,42.805,6.029,CST-1368DR,9234,12923,15560,0.014,551
2019-06-02T16:04:33,42.805,6.029,CST-1368DR,9234,12917,15552,0.016,550
2019-06-02T16:07:34,42.805,6.029,CST-1368DR,9234,12922,15558,0.015,551
2019-06-02T16:10:36,42.805,6.029,CST-1368DR,9234,12923,15559,0.015,551
2019-06-02T16:13:37,42.805,6.029,CST-1368DR,9234,12923,15559,0.015,550
2019-06-02T16:16:38,42.805,6.029,CST-1368DR,9234,12923,15559,0.015,551
2019-06-02T16:19:40,42.805,6.029,CST-1368DR,9234,12921,15557,0.015,551
2019-06-02T16:22:41,42.805,6.029,CST-1368DR,9234,12923,15560,0.014,551
2019-06-02T16:25:43,42.805,6.029,CST-1368DR,9234,12921,15557,0.015,551
2019-06-02T16:28:44,42.805,6.029,CST-1368DR,9234,12921,15557,0.015,551
2019-06-02T16:31:45,42.805,6.029,CST-1368DR,9234,12922,15558,0.015,551
2019-06-02T16:34:47,42.805,6.029,CST-1368DR,9234,12923,15559,0.015,551